Weather History for KO22 - April, 2014

Change the Weather History Date:

Tuesday, April 29, 2014

  Actual Average (KMOD) Record (KMOD)
Temperature  
Mean Temperature 58 °F -  
Max Temperature 75 °F 79 °F 97 °F (1981)
Min Temperature 41 °F 52 °F 35 °F (1942)
Degree Days  
Heating Degree Days 7 2  
Month to date heating degree days 128  
Since 1 July heating degree days 2133  
Cooling Degree Days 0 3  
Month to date cooling degree days 36  
Year to date cooling degree days 41  
Growing Degree Days 8 (Base 50)    
Moisture  
Dew Point 44 °F    
Average Humidity 62    
Maximum Humidity 88    
Minimum Humidity 36    
Precipitation  
Precipitation 0.00 in 0.02 in 0.34 in (1948)
Month to date precipitation 0.94  
Year to date precipitation 7.97  
Snow  
Snow 0.00 in - - ()
Month to date snowfall  
Since 1 July snowfall  
Snow Depth -    
Sea Level Pressure  
Sea Level Pressure 30.17 in    
Wind  
Wind Speed 2 mph (East)    
Max Wind Speed 7 mph    
Max Gust Speed -    
Visibility 10 miles    
Events      
T = Trace of Precipitation, MM = Missing Value Source: NWS Daily Summary

Daily Weather History Graph

Daily Weather History Graph

Search for Another Location

Airport or City:

Trip Planner

Search our weather history database for the weather conditions in past years. The results will help you decide how hot, cold, wet, or windy it might be!

Date:

Astronomy

Apr. 29, 2014 Rise Set
Actual Time 6:07 AM PDT 7:50 PM PDT
Civil Twilight 5:39 AM PDT 8:19 PM PDT
Nautical Twilight 5:05 AM PDT 8:53 PM PDT
Astronomical Twilight 4:29 AM PDT 9:29 PM PDT
Moon 6:29 AM PDT (4/29) 8:35 PM PDT (4/29)
Length of Visible Light 14h 39m
Length of Day
13h 43m
New Moon, 0% of the Moon is Illuminated
Apr 29
New Moon
May 6
First Quarter
May 14
Full
May 21
Last Quarter
May 28
New

Hourly Weather History & Observations

Time (PDT) Temp. Windchill Dew Point Humidity Pressure Visibility Wind Dir Wind Speed Gust Speed Precip Events Conditions
12:15 AM 46.4 °F 45.2 °F 41.0 °F 81% 30.16 in 10.0 mi NE 3.5 mph - N/A   Clear
12:35 AM 46.4 °F - 41.0 °F 81% 30.16 in 10.0 mi Calm Calm - N/A   Clear
12:55 AM 44.6 °F - 39.2 °F 81% 30.16 in 10.0 mi Calm Calm - N/A   Clear
1:15 AM 44.6 °F - 39.2 °F 81% 30.16 in 10.0 mi Calm Calm - N/A   Clear
1:35 AM 42.8 °F - 39.2 °F 87% 30.16 in 10.0 mi Calm Calm - N/A   Clear
1:55 AM 44.6 °F 43.1 °F 39.2 °F 81% 30.16 in 10.0 mi NNE 3.5 mph - N/A   Clear
2:15 AM 42.8 °F - 39.2 °F 87% 30.16 in 10.0 mi Calm Calm - N/A   Clear
2:35 AM 42.8 °F - 39.2 °F 87% 30.17 in 10.0 mi Calm Calm - N/A   Clear
2:55 AM 41.0 °F - 37.4 °F 87% 30.17 in 10.0 mi Calm Calm - N/A   Clear
3:15 AM 41.0 °F - 37.4 °F 87% 30.17 in 10.0 mi Calm Calm - N/A   Clear
3:35 AM 41.0 °F - 37.4 °F 87% 30.17 in 10.0 mi Calm Calm - N/A   Clear
3:55 AM 41.0 °F - 37.4 °F 87% 30.17 in 10.0 mi Calm Calm - N/A   Clear
4:15 AM 41.0 °F - 37.4 °F 87% 30.17 in 10.0 mi Calm Calm - N/A   Clear
4:35 AM 41.0 °F - 37.4 °F 87% 30.18 in 10.0 mi Calm Calm - N/A   Clear
4:55 AM 41.0 °F - 37.4 °F 87% 30.17 in 10.0 mi Calm Calm - N/A   Clear
5:15 AM 41.0 °F 39.0 °F 37.4 °F 87% 30.18 in 10.0 mi NNE 3.5 mph - N/A   Clear
5:35 AM 41.0 °F - 37.4 °F 87% 30.19 in 10.0 mi Calm Calm - N/A   Clear
5:55 AM 41.0 °F - 37.4 °F 87% 30.19 in 10.0 mi Calm Calm - N/A   Clear
6:15 AM 41.0 °F - 37.4 °F 87% 30.19 in 10.0 mi Calm Calm - N/A   Clear
6:35 AM 41.0 °F - 37.4 °F 87% 30.19 in 10.0 mi Calm Calm - N/A   Clear
6:55 AM 44.6 °F - 39.2 °F 81% 30.19 in 10.0 mi Calm Calm - N/A   Clear
7:15 AM 48.2 °F - 41.0 °F 76% 30.19 in 10.0 mi Calm Calm - N/A   Clear
7:35 AM 51.8 °F - 41.0 °F 67% 30.20 in 10.0 mi Calm Calm - N/A   Clear
7:55 AM 57.2 °F - 42.8 °F 59% 30.21 in 10.0 mi Calm Calm - N/A   Clear
8:15 AM 60.8 °F - 41.0 °F 48% 30.21 in 10.0 mi Calm Calm - N/A   Clear
8:35 AM 64.4 °F - 42.8 °F 45% 30.21 in 10.0 mi Calm Calm - N/A   Clear
8:55 AM 64.4 °F - 44.6 °F 49% 30.21 in 10.0 mi Calm Calm - N/A   Clear
9:15 AM 66.2 °F - 39.2 °F 37% 30.21 in 10.0 mi East 3.5 mph - N/A   Clear
9:35 AM 66.2 °F - 41.0 °F 40% 30.21 in 10.0 mi East 4.6 mph - N/A   Clear
9:55 AM 66.2 °F - 39.2 °F 37% 30.21 in 10.0 mi East 4.6 mph - N/A   Clear
10:15 AM 68.0 °F - 41.0 °F 37% 30.21 in 10.0 mi East 6.9 mph - N/A   Clear
10:35 AM 68.0 °F - 41.0 °F 37% 30.22 in 10.0 mi ESE 5.8 mph - N/A   Clear
10:55 AM 69.8 °F - 44.6 °F 40% 30.21 in 10.0 mi East 6.9 mph - N/A   Clear
11:15 AM 69.8 °F - 44.6 °F 40% 30.21 in 10.0 mi ESE 6.9 mph - N/A   Clear
11:35 AM 71.6 °F - 44.6 °F 38% 30.20 in 10.0 mi East 5.8 mph - N/A   Clear
11:55 AM 71.6 °F - 48.2 °F 43% 30.20 in 10.0 mi East 6.9 mph - N/A   Clear
12:15 PM 71.6 °F - 46.4 °F 41% 30.20 in 10.0 mi East 4.6 mph - N/A   Clear
12:35 PM 71.6 °F - 46.4 °F 41% 30.20 in 10.0 mi ESE 5.8 mph - N/A   Clear
12:55 PM 71.6 °F - 48.2 °F 43% 30.20 in 10.0 mi ESE 4.6 mph - N/A   Clear
1:15 PM 73.4 °F - 48.2 °F 41% 30.20 in 10.0 mi East 3.5 mph - N/A   Clear
1:55 PM 73.4 °F - 48.2 °F 41% 30.20 in 10.0 mi ESE 3.5 mph - N/A   Clear
2:15 PM 75.2 °F - 48.2 °F 38% 30.19 in 10.0 mi ESE 5.8 mph - N/A   Clear
2:35 PM 73.4 °F - 48.2 °F 41% 30.19 in 10.0 mi ESE 4.6 mph - N/A   Clear
2:55 PM 73.4 °F - 48.2 °F 41% 30.18 in 10.0 mi East 5.8 mph - N/A   Clear
3:15 PM 73.4 °F - 48.2 °F 41% 30.17 in 10.0 mi East 3.5 mph - N/A   Clear
3:35 PM 75.2 °F - 46.4 °F 36% 30.16 in 10.0 mi East 5.8 mph - N/A   Clear
3:55 PM 75.2 °F - 46.4 °F 36% 30.15 in 10.0 mi East 4.6 mph - N/A   Clear
4:15 PM 75.2 °F - 48.2 °F 38% 30.15 in 10.0 mi East 5.8 mph - N/A   Clear
4:35 PM 73.4 °F - 46.4 °F 38% 30.15 in 10.0 mi East 5.8 mph - N/A   Clear
4:55 PM 73.4 °F - 48.2 °F 41% 30.14 in 10.0 mi ENE 3.5 mph - N/A   Clear
5:15 PM 73.4 °F - 48.2 °F 41% 30.14 in 10.0 mi ENE 3.5 mph - N/A   Clear
5:35 PM 73.4 °F - 48.2 °F 41% 30.14 in 10.0 mi Calm Calm - N/A   Clear
5:55 PM 73.4 °F - 46.4 °F 38% 30.14 in 10.0 mi Calm Calm - N/A   Clear
6:15 PM 73.4 °F - 46.4 °F 38% 30.13 in 10.0 mi East 3.5 mph - N/A   Clear
6:35 PM 73.4 °F - 48.2 °F 41% 30.13 in 10.0 mi East 3.5 mph - N/A   Clear
6:55 PM 69.8 °F - 48.2 °F 46% 30.12 in 10.0 mi Calm Calm - N/A   Clear
7:15 PM 66.2 °F - 48.2 °F 52% 30.13 in 10.0 mi Calm Calm - N/A   Clear
7:35 PM 64.4 °F - 50.0 °F 59% 30.13 in 10.0 mi NNE 3.5 mph - N/A   Clear
7:55 PM 60.8 °F - 50.0 °F 68% 30.13 in 10.0 mi NNE 3.5 mph - N/A   Clear
8:15 PM 59.0 °F - 50.0 °F 72% 30.13 in 10.0 mi NNE 3.5 mph - N/A   Clear
8:35 PM 59.0 °F - 50.0 °F 72% 30.13 in 10.0 mi Calm Calm - N/A   Clear
8:55 PM 57.2 °F - 50.0 °F 77% 30.13 in 10.0 mi Calm Calm - N/A   Clear
9:15 PM 57.2 °F - 50.0 °F 77% 30.13 in 10.0 mi Calm Calm - N/A   Clear
9:35 PM 55.4 °F - 48.2 °F 77% 30.13 in 10.0 mi Calm Calm - N/A   Clear
9:55 PM 53.6 °F - 48.2 °F 82% 30.13 in 10.0 mi Calm Calm - N/A   Clear
10:15 PM 53.6 °F - 48.2 °F 82% 30.13 in 10.0 mi Calm Calm - N/A   Clear
10:35 PM 53.6 °F - 48.2 °F 82% 30.13 in 10.0 mi Calm Calm - N/A   Clear
10:55 PM 51.8 °F - 48.2 °F 88% 30.13 in 10.0 mi Calm Calm - N/A   Clear
11:15 PM 50.0 °F - 46.4 °F 87% 30.13 in 10.0 mi Calm Calm - N/A   Clear
11:35 PM 50.0 °F - 46.4 °F 87% 30.14 in 10.0 mi Calm Calm - N/A   Clear
11:55 PM 50.0 °F - 44.6 °F 82% 30.14 in 10.0 mi Calm Calm - N/A   Clear